Starlink 31280

operational
NORAD ID: 58843 Int'l Des: 2024-017 Owner: SPXS Country: US Constellation: starlink
LEOCIRCULAR

关于 Starlink 31280

正在加载描述...

实时位置

正在加载3D地球...

即将过境

高度历史

Altitude vs Time

uPlot chart will show altitude changes over time

两行轨道根数

1 58843U 24017T 25258.38311732 .00001067 00000-0 48152-4 0 9990
2 58843 53.1597 298.7672 0001275 81.7880 278.3266 15.30196595 93211
Epoch: Sep 15, 2025 • Age: 19 hours

当前状态

高度 478.9 km
速度 7.63 km/s
星下点 -13.03°S, 129.16°W
发射日期 Jan 24, 2024
运行时间 1.6 years
类型 internet

技术详情

分类 Payload
质量 730.00 kg
干质量 700.00 kg
总质量 730.00 kg
长度 0.30 m
直径 4.10 m
跨度 29.00 m
形状 Box + pan
制造商 SPXS
平台类型 Starlink V2M
阶段状态 In Orbit
所有者/国家 SPXS/US

大型星座

Loading constellations...